Terminal Aerodrome Forecast
Issued by NWS

Home | Current Version | Previous Version | Text Only | Print | Product List | Glossary On
Versions: 1 2 3 4 5 6 7 8 9 10 11 12 13 14 15 16 17 18 19 20 21 22 23 24 25 26 27 28 29
000
FTUS41 KOKX 281132
TAFHPN
TAF
KHPN 281132Z 2812/0112 VRB03KT P6SM OVC100
     FM281400 11003KT P6SM BKN070
     FM281600 12005KT P6SM BKN035
     FM282200 12005KT P6SM BKN020 OVC040
     FM010000 13005KT 3SM -RA BR BKN006 OVC010
     FM010300 14005KT 1SM -RA BR OVC004
     FM010700 15004KT 1SM -RA BR OVC004
     FM010900 19005KT 3SM BR OVC004 WS020/24040KT=

USA.gov is the U.S. government's official web portal to all federal, state and local government web resources and services.